This is the latest recevied weather packets stored in our database for station/object N2XP-2. If no packets are shown the sender has not sent any weather packets the latest 10 day(s).
| Time | Temp. | Humidity | Pressure | Rain* | Wind** | Luminosity | Snow |
|---|---|---|---|---|---|---|---|
| 1778125040 | 19.44° C | 86% | 1007.8 hPa | 0 mm | 0.45 m/s, 158° | - | - |
| 1778124741 | 19.44° C | 86% | 1007.9 hPa | 0 mm | 0 m/s | - | - |
| 1778124643 | 19.44° C | 85% | 1007.9 hPa | 0 mm | 0.45 m/s, 222° | - | - |
| 1778124437 | 19.44° C | 85% | 1007.8 hPa | 0 mm | 0 m/s | - | - |
| 1778124170 | 19.44° C | 85% | 1007.8 hPa | 0 mm | 0.45 m/s, 180° | - | - |
| 1778124138 | 19.44° C | 85% | 1007.8 hPa | 0 mm | 0.45 m/s, 180° | - | - |
| 1778123838 | 19.44° C | 85% | 1008 hPa | 0 mm | 0.45 m/s, 259° | - | - |
| 1778123535 | 19.44° C | 85% | 1007.9 hPa | 0 mm | 0.89 m/s, 201° | - | - |
| 1778123236 | 19.44° C | 85% | 1007.9 hPa | 0 mm | 0.45 m/s, 222° | - | - |
| 1778122935 | 19.44° C | 85% | 1008 hPa | 0 mm | 0.89 m/s, 243° | - | - |
| 1778122729 | 19.44° C | 84% | 1008.3 hPa | 0 mm | 0.45 m/s, 263° | - | - |
| 1778122714 | 20° C | 83% | 1008.2 hPa | 0 mm | 0.45 m/s, 210° | - | - |
| 1778122632 | 19.44° C | 85% | 1008 hPa | 0 mm | 0.45 m/s, 304° | - | - |
| 1778122509 | 19.44° C | 84% | 1008.2 hPa | 0 mm | 0.89 m/s, 253° | - | - |
| 1778122332 | 19.44° C | 84% | 1008.2 hPa | 0 mm | 0.89 m/s, 253° | - | - |
| 1778122033 | 19.44° C | 84% | 1008.2 hPa | 0 mm | 0 m/s | - | - |
| 1778121729 | 19.44° C | 84% | 1008.3 hPa | 0 mm | 0.89 m/s, 228° | - | - |
| 1778121430 | 19.44° C | 84% | 1008.3 hPa | 0 mm | 0.45 m/s, 263° | - | - |
| 1778121131 | 20° C | 84% | 1008.3 hPa | 0 mm | 0.45 m/s, 183° | - | - |
| 1778120828 | 20° C | 83% | 1008.2 hPa | 0 mm | 0.45 m/s, 210° | - | - |
| 1778120794 | 20° C | 82% | 1008.6 hPa | 0 mm | 0 m/s | - | - |
| 1778120528 | 20° C | 83% | 1008.2 hPa | 0 mm | 0 m/s | - | - |
| 1778120229 | 20° C | 83% | 1008.5 hPa | 0 mm | 0.45 m/s, 208° | - | - |
| 1778119926 | 20° C | 83% | 1008.7 hPa | 0 mm | 0.45 m/s, 270° | - | - |
| 1778119627 | 20° C | 82% | 1008.6 hPa | 0 mm | 0.89 m/s, 308° | - | - |
* Rain latest hour (hover to see other rain measurements)
** Current wind speed in m/s (hover to see current wind gust speed)